Fargo, ND

4:54 PM CST on November 24, 2017 (GMT -0600)
Hector International

Weather History for KFAR - November, 2014

Change the Weather History Date:

Saturday, November 15, 2014

  Actual Average Record
Temperature  
Mean Temperature 14 °F 29 °F  
Max Temperature 22 °F 38 °F 64 °F (1953)
Min Temperature 5 °F 21 °F -14 °F (1881)
Degree Days  
Heating Degree Days 51 36  
Month to date heating degree days 521 474  
Since 1 July heating degree days 1220 1350  
Cooling Degree Days 0 0  
Month to date cooling degree days 0 0  
Year to date cooling degree days 544 551  
Moisture  
Dew Point 6 °F    
Average Humidity 72    
Maximum Humidity 87    
Minimum Humidity 57    
Precipitation  
Precipitation T in 0.03 in 0.52 in (1958)
Month to date precipitation 0.49 0.55  
Year to date precipitation 19.73 21.33  
Snow  
Snow T in 0.30 in 3.20 in (1947)
Month to date snowfall 1.2 2.8  
Since 1 July snowfall 1.2 3.5  
Since 1 September snowfall 1.2 3.5  
Snow Depth 1.00 in    
Sea Level Pressure  
Sea Level Pressure 30.27 in    
Wind  
Wind Speed 6 mph (West)    
Max Wind Speed 16 mph    
Max Gust Speed 20 mph    
Visibility 8 miles    
Events      
T = Trace of Precipitation, MM = Missing Value Source: NWS Daily Summary

Daily Weather History Graph

Daily Weather History Graph

Search for Another Location

Airport or City:

Trip Planner

Search our weather history database for the weather conditions in past years. The results will help you decide how hot, cold, wet, or windy it might be!

Date:

Astronomy

Nov. 15, 2014 Rise Set
Actual Time 7:30 AM CST 4:52 PM CST
Civil Twilight 6:57 AM CST 5:25 PM CST
Nautical Twilight 6:20 AM CST 6:02 PM CST
Astronomical Twilight 5:44 AM CST 6:38 PM CST
Moon 12:17 AM CST (11/15) 1:40 PM CST (11/15)
Length of Visible Light 10h 28m
Length of Day
9h 22m
Last Quarter, 40% of the Moon is Illuminated
Nov 15
Last Quarter
Nov 22
New
Nov 29
First Quarter
Dec 6
Full
Dec 14
Last Quarter

Hourly Weather History & Observations

Time (CST) Temp. Windchill Dew Point Humidity Pressure Visibility Wind Dir Wind Speed Gust Speed Precip Events Conditions
12:53 AM 5.0 °F -2.1 °F 1.0 °F 84% 30.35 in 7.0 mi ESE 3.5 mph - N/A   Partly Cloudy
1:53 AM 9.0 °F 0.6 °F 3.9 °F 80% 30.34 in 7.0 mi South 4.6 mph - N/A   Overcast
2:53 AM 10.0 °F - 5.0 °F 80% 30.33 in 8.0 mi Calm Calm - N/A   Overcast
3:53 AM 10.0 °F 0.4 °F 5.0 °F 80% 30.30 in 7.0 mi ESE 5.8 mph - N/A   Overcast
4:53 AM 10.9 °F - 5.0 °F 77% 30.32 in 7.0 mi Calm Calm - N/A   Overcast
5:53 AM 10.0 °F 3.6 °F 5.0 °F 80% 30.30 in 7.0 mi ESE 3.5 mph - N/A   Overcast
6:53 AM 10.9 °F - 6.1 °F 81% 30.32 in 7.0 mi Calm Calm - N/A   Overcast
7:53 AM 10.9 °F - 5.0 °F 77% 30.33 in 5.0 mi Calm Calm - N/A   Haze
8:53 AM 12.0 °F - 6.1 °F 77% 30.33 in 5.0 mi Calm Calm - N/A   Haze
9:53 AM 14.0 °F 8.2 °F 8.1 °F 77% 30.33 in 5.0 mi WNW 3.5 mph - N/A   Haze
10:53 AM 16.0 °F 6.3 °F 10.0 °F 77% 30.33 in 5.0 mi NW 6.9 mph - 0.00 in   Haze
11:53 AM 19.9 °F 10.1 °F 10.9 °F 68% 30.32 in 10.0 mi NNW 8.1 mph - N/A   Scattered Clouds
12:53 PM 19.9 °F 14.9 °F 10.0 °F 65% 30.28 in 10.0 mi Variable 3.5 mph - N/A   Mostly Cloudy
1:53 PM 21.0 °F 12.4 °F 9.0 °F 60% 30.27 in 10.0 mi WNW 6.9 mph - N/A   Clear
2:53 PM 21.9 °F 11.0 °F 9.0 °F 58% 30.24 in 10.0 mi WNW 10.4 mph - N/A   Clear
3:53 PM 21.0 °F 11.4 °F 9.0 °F 60% 30.23 in 10.0 mi West 8.1 mph - N/A   Clear
4:53 PM 18.0 °F 7.7 °F 8.1 °F 65% 30.23 in 10.0 mi West 8.1 mph - N/A   Clear
5:53 PM 15.1 °F 1.1 °F 7.0 °F 70% 30.23 in 10.0 mi WNW 12.7 mph - N/A   Clear
6:53 PM 12.9 °F -0.9 °F 5.0 °F 71% 30.24 in 10.0 mi West 11.5 mph - N/A   Clear
7:53 PM 10.9 °F -3.4 °F 3.9 °F 73% 30.23 in 10.0 mi West 11.5 mph - N/A   Clear
8:53 PM 8.1 °F -5.3 °F 1.9 °F 76% 30.22 in 10.0 mi West 9.2 mph - N/A   Clear
9:53 PM 9.0 °F -5.1 °F 3.0 °F 77% 30.20 in 10.0 mi SW 10.4 mph - N/A   Clear
10:53 PM 8.1 °F -6.2 °F 1.9 °F 76% 30.18 in 10.0 mi SW 10.4 mph - N/A   Clear
11:53 PM 9.0 °F -5.9 °F 1.9 °F 73% 30.15 in 10.0 mi SW 11.5 mph - N/A   Clear